Overall — Peninsula - Mini
Sunday 2 June 2024 · 62 finishers across every class · 4 laps for the winner
| Pos | No. | Rider | Class | Laps | Time | Behind | Int | Pace |
|---|---|---|---|---|---|---|---|---|
| 1 | #94A | MCCULLOUGH, RYLAND | SM 14-15 | 4 | 1:12:28 | — | 0:00 | 18:07 |
| 2 | #99A | CASH, CARSON | SM 14-15 | 4 | 1:13:17 | +0:49 | 0:49 | 18:19 |
| 3 | #42B | LACY, JACK | SM 12-13 | 4 | 1:14:16 | +1:48 | 0:59 | 18:34 |
| 4 | #18A | EDMONDSON, TUCKER | SM 14-15 | 4 | 1:14:39 | +2:11 | 0:23 | 18:39 |
| 5 | #47A | HARRISON, EVAN | SM 14-15 | 4 | 1:15:16 | +2:48 | 0:37 | 18:49 |
| 6 | #21B | YOST, TRACE | SM 12-13 | 4 | 1:15:37 | +3:09 | 0:21 | 18:54 |
| 7 | #36A | FULCHER, THOMAS | SM 14-15 | 4 | 1:16:43 | +4:15 | 1:06 | 19:10 |
| 8 | #30A | OLEARY, ASHTON | SM 14-15 | 4 | 1:17:04 | +4:36 | 0:21 | 19:16 |
| 9 | #42A | SCHLICKENMEYER, SEAN | SM 14-15 | 4 | 1:17:33 | +5:05 | 0:29 | 19:23 |
| 10 | #29A | POFF, PEYTON | SM 14-15 | 4 | 1:17:48 | +5:20 | 0:15 | 19:27 |
| 11 | #19A | CAWLEY, MASON | SM 14-15 | 4 | 1:18:20 | +5:52 | 0:32 | 19:35 |
| 12 | #24C | OLEARY, NOLAN | MINI 12-13 | 4 | 1:19:38 | +7:10 | 1:18 | 19:54 |
| 13 | #21C | WIGGINS, MADDIX | MINI 12-13 | 4 | 1:19:41 | +7:13 | 0:03 | 19:55 |
| 14 | #25B | HERTZLER, NOAH | SM 12-13 | 4 | 1:19:45 | +7:17 | 0:04 | 19:56 |
| 15 | #92B | GREER, LOGAN | SM 12-13 | 4 | 1:20:09 | +7:41 | 0:24 | 20:02 |
| 16 | #48B | GREER, CALEB | SM 12-13 | 4 | 1:20:28 | +8:00 | 0:19 | 20:07 |
| 17 | #44B | GEARHART, CADENCE | SM 12-13 | 4 | 1:21:33 | +9:05 | 1:05 | 20:23 |
| 18 | #12D | BURKHOLDER, BRADLEY | MINI 9-11 | 4 | 1:22:34 | +10:06 | 1:01 | 20:38 |
| 19 | #85C | BUCHANAN, TUCKER | MINI 12-13 | 4 | 1:23:29 | +11:01 | 0:55 | 20:52 |
| 20 | #42C | COLLINS, JAXON | MINI 12-13 | 4 | 1:23:31 | +11:03 | 0:02 | 20:52 |
| 21 | #25C | TORRES, TRISTIN | MINI 12-13 | 4 | 1:23:46 | +11:18 | 0:15 | 20:56 |
| 22 | #4C | KERN, QUENTIN | MINI 12-13 | 4 | 1:24:30 | +12:02 | 0:44 | 21:07 |
| 23 | #51B | RICE, DANE | SM 12-13 | 4 | 1:24:32 | +12:04 | 0:02 | 21:08 |
| 24 | #32A | CALLOW, CAMRON | SM 14-15 | 4 | 1:24:36 | +12:08 | 0:04 | 21:09 |
| 25 | #22B | BAKER, COHEN | SM 12-13 | 4 | 1:24:40 | +12:12 | 0:04 | 21:10 |
| 26 | #50C | JOHNSON, LUCAS | MINI 12-13 | 4 | 1:24:42 | +12:14 | 0:02 | 21:10 |
| 27 | #14B | MOUNTS, RILEY | SM 12-13 | 4 | 1:24:43 | +12:15 | 0:01 | 21:10 |
| 28 | #5B | BAKKEN, DASH | SM 12-13 | 4 | 1:26:04 | +13:36 | 1:21 | 21:31 |
| 29 | #31A | MOUNTS, HUNTER | SM 14-15 | 4 | 1:26:50 | +14:22 | 0:46 | 21:42 |
| 30 | #1K | DOMAN, HAYDEN | MINI 9-11K | 4 | 1:27:49 | +15:21 | 0:59 | 21:57 |
| 31 | #40K | WINN, ADDISON | MINI 9-11K | 4 | 1:28:36 | +16:08 | 0:47 | 22:09 |
| 32 | #22A | WOOD, PARKER | SM 14-15 | 4 | 1:31:52 | +19:24 | 3:16 | 22:58 |
| 33 | #2E | HARDMAN, SAVANNAH | SM WOMEN | 4 | 1:35:11 | +22:43 | 3:19 | 23:47 |
| 34 | #52A | REYNOLDS, LUCAS | SM 14-15 | 4 | 1:37:19 | +24:51 | 2:08 | 24:19 |
| 35 | #8E | PANCAKE, DELILAH | SM WOMEN | 3 | 1:12:33 | 1 lap | 0:00 | 24:11 |
| 36 | #33C | LILLY, RYDER | MINI 12-13 | 3 | 1:12:37 | 1 lap | 0:04 | 24:12 |
| 37 | #11A | SENTERS, ZEKE | SM 14-15 | 3 | 1:12:41 | 1 lap | 0:04 | 24:13 |
| 38 | #26D | LILLY, WYATT | MINI 9-11 | 3 | 1:13:02 | 1 lap | 0:21 | 24:20 |
| 39 | #18K | PAYNE, DYLAN | MINI 9-11K | 3 | 1:13:38 | 1 lap | 0:36 | 24:32 |
| 40 | #11K | ADAMSON, CASSEL | MINI 9-11K | 3 | 1:13:43 | 1 lap | 0:05 | 24:34 |
| 41 | #8K | MUTER, MAX | MINI 9-11K | 3 | 1:14:03 | 1 lap | 0:20 | 24:41 |
| 42 | #10E | PANCAKE, LILLIAN | SM WOMEN | 3 | 1:14:09 | 1 lap | 0:06 | 24:43 |
| 43 | #5C | MARKHAM, KASEN | MINI 12-13 | 3 | 1:14:16 | 1 lap | 0:07 | 24:45 |
| 44 | #44K | MASON, HUNTER | MINI 9-11K | 3 | 1:14:38 | 1 lap | 0:22 | 24:52 |
| 45 | #69D | LILLY, COLE | MINI 9-11 | 3 | 1:15:16 | 1 lap | 0:38 | 25:05 |
| 46 | #30C | FAIN, JACKSON | MINI 12-13 | 3 | 1:15:55 | 1 lap | 0:39 | 25:18 |
| 47 | #21A | COUVILLION, BRAIDYN | SM 14-15 | 3 | 1:16:41 | 1 lap | 0:46 | 25:33 |
| 48 | #24E | WINGO, BELLA | SM WOMEN | 3 | 1:19:08 | 1 lap | 2:27 | 26:22 |
| 49 | #55D | KUEBLER, CADEN | MINI 9-11 | 3 | 1:19:42 | 1 lap | 0:34 | 26:34 |
| 50 | #13E | NICHOLS, ELLA | SM WOMEN | 3 | 1:20:10 | 1 lap | 0:28 | 26:43 |
| 51 | #51K | RICE, HOLTON | MINI 9-11K | 3 | 1:22:02 | 1 lap | 1:52 | 27:20 |
| 52 | #10K | LAMB, BRANTLEY | MINI 9-11K | 3 | 1:24:52 | 1 lap | 2:50 | 28:17 |
| 53 | #25K | ANTHONY, AIDEN | MINI 9-11K | 3 | 1:28:01 | 1 lap | 3:09 | 29:20 |
| 54 | #48E | LANDRUM, KINLEY | SM WOMEN | 3 | 1:29:33 | 1 lap | 1:32 | 29:51 |
| 55 | #24K | JESNECK, HUNTER | MINI 9-11K | 3 | 1:31:51 | 1 lap | 2:18 | 30:37 |
| 56 | #77K | LAMB, BRYSON | MINI 9-11K | 3 | 1:34:00 | 1 lap | 2:09 | 31:20 |
| 57 | #27C | KOBIA, SHAIN | MINI 12-13 | 3 | 1:34:54 | 1 lap | 0:54 | 31:38 |
| 58 | #74K | LOVE, CONNER | MINI 9-11K | 2 | 1:08:01 | 2 laps | 0:00 | 34:00 |
| 59 | #22K | BAKER, CAMDEN | MINI 9-11K | 2 | 1:11:31 | 2 laps | 3:30 | 35:45 |
| 60 | #39C | LEWIS, JACOB | MINI 12-13 | 2 | 1:19:15 | 2 laps | 7:44 | 39:37 |
| 61 | #50G | HARRUP, ANDREA | TRL WOMEN | 1 | 41:52 | 3 laps | 0:00 | 41:52 |
| 62 | #6G | Potter, Sarah | TRL WOMEN | 1 | 1:06:04 | 3 laps | 24:12 | 1:06:04 |
Ranked the way the series ranks: most laps first, then least time. Behind is the deficit to the winner and is only shown where the lap count matches, because elapsed time says nothing across different lap counts — a rider a lap down shows the laps instead. Int is the gap to the rider immediately ahead.